Weather History for Rockford, IL

Change the Weather History Date:

Tuesday, March 11, 2014

  Actual Average Record
Temperature  
Mean Temperature 41 °F 35 °F  
Max Temperature 49 °F 45 °F 71 °F (1990)
Min Temperature 32 °F 26 °F -4 °F (1943)
Degree Days  
Heating Degree Days 24 30  
Month to date heating degree days 471 352  
Since 1 July heating degree days 6363 5354  
Cooling Degree Days 0 0  
Month to date cooling degree days 0 0  
Year to date cooling degree days 0 0  
Moisture  
Dew Point 33 °F    
Average Humidity 75    
Maximum Humidity 96    
Minimum Humidity 53    
Precipitation  
Precipitation 0.05 in 0.07 in 1.37 in (1962)
Month to date precipitation 0.55 0.72  
Year to date precipitation 4.29 3.50  
Snow  
Snow 0.00 in 0.20 in 5.00 in (1950)
Month to date snowfall 7.4 2.3  
Since 1 July snowfall 54.9 33.3  
Snow Depth 1.00 in    
Sea Level Pressure  
Sea Level Pressure 29.75 in    
Wind  
Wind Speed 9 mph (NNE)    
Max Wind Speed 25 mph    
Max Gust Speed 30 mph    
Visibility 9 miles    
Events Rain    
T = Trace of Precipitation, MM = Missing Value Source: NWS Daily Summary

Daily Weather History Graph

Daily Weather History Graph

Search for Another Location

Airport:

Trip Planner

Search our weather history database for the weather conditions in past years. The results will help you decide how hot, cold, wet, or windy it might be!

Date:

Astronomy

Mar. 11, 2014 Rise Set
Actual Time 7:15 AM CDT 6:58 PM CDT
Civil Twilight 6:47 AM CDT 7:26 PM CDT
Nautical Twilight 6:14 AM CDT 7:58 PM CDT
Astronomical Twilight 5:41 AM CDT 8:31 PM CDT
Moon 2:30 PM CDT (3/11) 4:12 AM CDT (3/11)
Length of Visible Light 12h 39m
Length of Day
11h 43m
Waxing Gibbous, 78% of the Moon is Illuminated
Mar 11
Waxing Gibbous
Mar 16
Full
Mar 23
Last Quarter
Mar 30
New
Apr 7
First Quarter

Hourly Weather History & Observations

Time (CDT) Temp. Windchill Dew Point Humidity Pressure Visibility Wind Dir Wind Speed Gust Speed Precip Events Conditions
12:54 AM 35.1 °F - 32.0 °F 89% 29.71 in 8.0 mi Calm Calm - N/A   Mostly Cloudy
1:54 AM 35.1 °F 31.0 °F 32.0 °F 89% 29.71 in 8.0 mi NNE 4.6 mph - N/A   Overcast
2:54 AM 39.0 °F 36.8 °F 33.1 °F 79% 29.71 in 10.0 mi North 3.5 mph - N/A   Overcast
3:54 AM 35.1 °F - 30.9 °F 85% 29.69 in 10.0 mi Calm Calm - N/A   Scattered Clouds
4:54 AM 34.0 °F - 32.0 °F 92% 29.69 in 8.0 mi Calm Calm - N/A   Overcast
5:54 AM 32.0 °F - 30.0 °F 92% 29.70 in 7.0 mi Calm Calm - N/A   Partly Cloudy
6:54 AM 33.1 °F 30.0 °F 30.0 °F 89% 29.70 in 8.0 mi North 3.5 mph - N/A   Overcast
7:54 AM 35.1 °F - 32.0 °F 89% 29.72 in 8.0 mi Calm Calm - N/A   Overcast
8:54 AM 36.0 °F 31.1 °F 33.1 °F 89% 29.72 in 8.0 mi North 5.8 mph - N/A   Overcast
9:54 AM 39.0 °F - 34.0 °F 82% 29.72 in 9.0 mi Calm Calm - N/A   Overcast
10:54 AM 43.0 °F 40.3 °F 34.0 °F 71% 29.74 in 9.0 mi WNW 4.6 mph - N/A   Overcast
11:54 AM 48.0 °F - 32.0 °F 54% 29.74 in 10.0 mi NE 6.9 mph - N/A   Overcast
12:54 PM 46.0 °F 40.2 °F 30.9 °F 56% 29.74 in 10.0 mi NE 12.7 mph - N/A   Overcast
1:54 PM 45.0 °F 37.4 °F 33.1 °F 63% 29.73 in 10.0 mi NNE 18.4 mph - N/A   Overcast
2:54 PM 44.1 °F 36.8 °F 34.0 °F 68% 29.75 in 10.0 mi NNE 16.1 mph - N/A   Overcast
3:54 PM 43.0 °F 34.0 °F 34.0 °F 71% 29.75 in 10.0 mi NNE 21.9 mph - N/A   Overcast
4:54 PM 42.1 °F 33.3 °F 34.0 °F 73% 29.76 in 10.0 mi NNE 19.6 mph - N/A   Overcast
5:54 PM 39.9 °F 30.2 °F 34.0 °F 79% 29.75 in 10.0 mi NNE 20.7 mph - N/A   Overcast
6:54 PM 39.0 °F 31.0 °F 33.1 °F 79% 29.80 in 10.0 mi NE 13.8 mph - N/A   Overcast
7:54 PM 37.9 °F 29.6 °F 34.0 °F 86% 29.81 in 10.0 mi NE 13.8 mph - N/A   Overcast
8:54 PM 37.0 °F 28.9 °F 34.0 °F 89% 29.83 in 10.0 mi North 12.7 mph - 0.00 in Rain Light Rain
9:28 PM 37.9 °F 30.0 °F 34.0 °F 86% 29.79 in 10.0 mi NNE 12.7 mph - 0.02 in Rain Light Rain
9:54 PM 37.9 °F 29.2 °F 34.0 °F 86% 29.81 in 10.0 mi NNE 15.0 mph - 0.04 in Rain Light Rain
10:25 PM 37.0 °F 30.4 °F 33.1 °F 86% 29.79 in 10.0 mi NE 9.2 mph - 0.01 in Rain Light Rain
10:54 PM 36.0 °F 29.6 °F 33.1 °F 89% 29.80 in 10.0 mi NE 8.1 mph - 0.01 in   Overcast
11:33 PM 36.0 °F 29.0 °F 34.0 °F 93% 29.77 in 10.0 mi NE 9.2 mph - N/A   Overcast
11:54 PM 36.0 °F 28.5 °F 33.1 °F 89% 29.78 in 10.0 mi NE 10.4 mph - N/A   Overcast